sat.trackr.live / text

‹ back to catalog

GUANGCHUAN 02

NORAD 62112 · 2024-221B

PAYLOAD ACTIVE UNKNOWN

§ Identity

Operator
Country
PRC
Launch date
2024-11-27
Launch site
JSC
Launch vehicle
Mass (kg)
RCS (m²)

External: N2YO · Heavens-Above · Gunter

§ Orbital elements

Epoch: 2026-05-25T03:30:14.247936Z

Period
95.09 min
Inclination
49.9424°
Eccentricity
0.0006862
Mean motion
15.14429526 rev/d
Perigee alt
518.0 km
Apogee alt
527.4 km
Semi-major
6,900.8 km
B*
1.8888e-4
RAAN
274.2528°
Arg perigee
253.2296°
Mean anomaly
106.7902°
Rev number
8,268

§ Raw data

GUANGCHUAN 021 62112U 24221B   26145.14599824  .00003218  00000+0  18888-3 0  99922 62112  49.9424 274.2528 0006862 253.2296 106.7902 15.14429526 82685

JSON: /api/v1/satellites/62112 · /tle

For live sub-satellite position, see the globe view (requires WebGL).

§ Visibility from observer

Set your observer location to see the next 7 days of passes ≥ 10°. The values pass through the URL so the page stays shareable.

No JS? Fill the form by hand. The geolocation button needs JavaScript.